Regional Weather Roundup
Issued by NWS

Home | Current Version | Previous Version | Text Only | Print | Product List | Glossary Off
Versions: 1 2 3 4 5 6 7 8 9 10 11 12 13 14 15 16 17 18 19 20 21 22 23 24 25 26 27 28 29 30 31 32 33 34 35 36 37 38 39 40 41 42 43 44 45 46 47 48 49 50

021
ASUS43 KTOP 241008
RWRKS

WEATHER ROUNDUP FOR KANSAS
NATIONAL WEATHER SERVICE GOODLAND KS
500 AM CDT SUN JUL 24 2016

NOTE:  "FAIR" INDICATES FEW OR NO CLOUDS BELOW 12,000 FEET WITH NO
SIGNIFICANT WEATHER AND/OR OBSTRUCTIONS TO VISIBILITY.

KSZ001>006-013>018-027>032-041>047-241100-
NORTHWEST KANSAS

CITY           SKY/WX    TMP DP  RH WIND       PRES   REMARKS
GOODLAND       CLOUDY    70  64  81 E7        30.03F
HAYS           MOCLDY    84  59  42 NW6       29.91R
HILL CITY      CLOUDY    78  70  76 N12       29.92R
RUSSELL        RAIN      78  67  68 SW14      29.87R
$$

KSZ061>065-074>080-084>089-241100-
SOUTHWEST KANSAS

CITY           SKY/WX    TMP DP  RH WIND       PRES   REMARKS
DODGE CITY     CLOUDY    74  66  76 S12       29.96F
ELKHART          N/A     75  60  59 E10         N/A
GARDEN CITY    CLOUDY    75  62  64 N10       29.95F
GREAT BEND     CLOUDY    81  63  54 SW15      29.88F
LIBERAL        PTCLDY    79  61  53 N7        29.99F
PRATT          LGT RAIN  73  66  79 SW6       29.95R
$$

KSZ066>073-081>083-090>101-241100-
SOUTHEAST KANSAS

CITY           SKY/WX    TMP DP  RH WIND       PRES   REMARKS
CHANUTE        PTCLDY    79  71  76 S9        29.89S
COFFEYVILLE    CLEAR     77  73  87 S6        29.90S
HUTCHINSON     MOCLDY    83  66  56 SW9       29.90R
MEDICINE LODGE   N/A     76  66  71 N3        29.92R
NEWTON         CLOUDY    81  68  64 S13       29.91R
PARSONS        CLEAR     77  72  84 S5        29.91S
WICHITA INTL   PTCLDY    77  68  73 SW5       29.91R
WICHITA JABRA  CLEAR     81  68  64 SW10      29.91R
WICHITA MCCONL CLEAR     79  68  68 SW9       29.91R
WINFIELD       CLEAR     78  70  76 S9        29.91R
$$

KSZ007>012-019>026-033>040-048>060-102>105-241100-
NORTHEAST KANSAS

CITY           SKY/WX    TMP DP  RH WIND       PRES   REMARKS
CONCORDIA      MOCLDY    75  67  76 N3        29.87R
EMPORIA        PTCLDY    76  70  82 S8        29.88R
LAWRENCE       CLEAR     75  71  87 CALM      29.88R
MANHATTAN      LGT RAIN  81  71  71 S12       29.86F
MARYSVILLE     MOCLDY    79  70  73 CALM      29.88R
OLATHE IND     CLEAR     78  72  81 S8        29.89S
OLATHE EXE     CLEAR     77  71  82 S7        29.89S
SALINA         MOCLDY    87  66  49 SW20G28   29.86R
TOPEKA BILLARD MOCLDY    79  71  76 SW3       29.87R
TOPEKA FORBES  MOCLDY    78  71  79 CALM      29.89R
$$




USA.gov is the U.S. government's official web portal to all federal, state and local government web resources and services.